Junction City, KY

9:36 PM EDT on July 24, 2016 (GMT -0400)
Powell

Weather History for KDVK - November, 2012

Change the Weather History Date:

Monday, November 12, 2012

  Actual Average (KLEX) Record (KLEX)
Temperature  
Mean Temperature 47 °F 48 °F  
Max Temperature 62 °F 57 °F 75 °F (1945)
Min Temperature 32 °F 39 °F 14 °F (1911)
Degree Days  
Heating Degree Days 18 17  
Month to date heating degree days 182  
Since 1 July heating degree days 508  
Cooling Degree Days 0 0  
Month to date cooling degree days 0  
Year to date cooling degree days 1188  
Moisture  
Dew Point 43 °F    
Average Humidity 85    
Maximum Humidity 100    
Minimum Humidity 59    
Precipitation  
Precipitation 0.00 in 0.11 in 2.06 in (2003)
Month to date precipitation 1.31  
Year to date precipitation 39.02  
Snow  
Snow 0.00 in 0.00 in 0.40 in (2013)
Month to date snowfall 0.0  
Since 1 July snowfall 0.0  
Since 1 September snowfall 0.0  
Snow Depth -    
Sea Level Pressure  
Sea Level Pressure 30.22 in    
Wind  
Wind Speed 11 mph (WSW)    
Max Wind Speed 21 mph    
Max Gust Speed 29 mph    
Visibility 9 miles    
Events Rain    
T = Trace of Precipitation, MM = Missing Value Source: NWS Daily Summary

Daily Weather History Graph

Daily Weather History Graph

Search for Another Location

Airport or City:

Trip Planner

Search our weather history database for the weather conditions in past years. The results will help you decide how hot, cold, wet, or windy it might be!

Date:

Astronomy

Nov. 12, 2012 Rise Set
Actual Time 7:16 AM EST 5:29 PM EST
Civil Twilight 6:48 AM EST 5:57 PM EST
Nautical Twilight 6:16 AM EST 6:29 PM EST
Astronomical Twilight 5:46 AM EST 7:00 PM EST
Moon 5:41 AM EST (11/12) 4:34 PM EST (11/12)
Length of Visible Light 11h 09m
Length of Day
10h 13m
Waning Crescent, 2% of the Moon is Illuminated
Nov 12
Waning Crescent
Nov 13
New
Nov 20
First Quarter
Nov 28
Full
Dec 6
Last Quarter

Hourly Weather History & Observations

Time (EST) Temp. Windchill Dew Point Humidity Pressure Visibility Wind Dir Wind Speed Gust Speed Precip Events Conditions
12:15 AM 60.8 °F - 46.4 °F 59% 30.13 in 10.0 mi SSW 15.0 mph 23.0 mph N/A   Clear
12:35 AM 60.8 °F - 46.4 °F 59% 30.13 in 10.0 mi SSW 13.8 mph - N/A   Clear
12:55 AM 60.8 °F - 46.4 °F 59% 30.14 in 10.0 mi SSW 11.5 mph - N/A   Clear
1:15 AM 60.8 °F - 46.4 °F 59% 30.15 in 10.0 mi SSW 10.4 mph 16.1 mph N/A   Clear
1:35 AM 60.8 °F - 46.4 °F 59% 30.15 in 10.0 mi SW 11.5 mph - N/A   Scattered Clouds
1:55 AM 60.8 °F - 46.4 °F 59% 30.15 in 10.0 mi SW 8.1 mph - N/A   Scattered Clouds
2:15 AM 60.8 °F - 48.2 °F 63% 30.15 in 10.0 mi SSW 11.5 mph 17.3 mph N/A   Overcast
2:35 AM 60.8 °F - 48.2 °F 63% 30.14 in 10.0 mi SSW 10.4 mph 24.2 mph N/A   Overcast
2:55 AM 60.8 °F - 48.2 °F 63% 30.14 in 10.0 mi SSW 12.7 mph 21.9 mph N/A   Overcast
3:15 AM 62.6 °F - 48.2 °F 59% 30.13 in 10.0 mi SSW 16.1 mph 23.0 mph N/A   Overcast
3:35 AM 60.8 °F - 50.0 °F 68% 30.12 in 10.0 mi SSW 16.1 mph 28.8 mph N/A   Mostly Cloudy
3:55 AM 60.8 °F - 50.0 °F 68% 30.10 in 10.0 mi South 16.1 mph 21.9 mph N/A   Scattered Clouds
4:15 AM 60.8 °F - 50.0 °F 68% 30.08 in 10.0 mi South 17.3 mph 25.3 mph N/A   Clear
4:35 AM 60.8 °F - 50.0 °F 68% 30.07 in 10.0 mi South 12.7 mph 23.0 mph N/A   Scattered Clouds
4:55 AM 60.8 °F - 51.8 °F 72% 30.07 in 10.0 mi South 16.1 mph 26.5 mph N/A Rain Light Rain
5:15 AM 59.0 °F - 51.8 °F 77% 30.07 in 10.0 mi South 15.0 mph 20.7 mph N/A Rain Light Rain
5:35 AM 59.0 °F - 51.8 °F 77% 30.06 in 10.0 mi South 16.1 mph 27.6 mph N/A Rain Light Rain
5:55 AM 59.0 °F - 53.6 °F 82% 30.09 in 5.0 mi SSW 18.4 mph 28.8 mph N/A Rain Rain
6:15 AM 59.0 °F - 53.6 °F 82% 30.09 in 10.0 mi SSW 13.8 mph 23.0 mph N/A Rain Light Rain
6:35 AM 57.2 °F - 53.6 °F 88% 30.09 in 10.0 mi SSW 15.0 mph 25.3 mph N/A Rain Light Rain
6:55 AM 57.2 °F - 53.6 °F 88% 30.10 in 7.0 mi SSW 15.0 mph 24.2 mph N/A Rain Rain
7:15 AM 55.4 °F - 53.6 °F 94% 30.09 in 7.0 mi South 12.7 mph 25.3 mph N/A Rain Rain
7:35 AM 55.4 °F - 53.6 °F 94% 30.10 in 5.0 mi South 13.8 mph 23.0 mph N/A Rain Rain
7:55 AM 55.4 °F - 53.6 °F 94% 30.09 in 7.0 mi SSW 12.7 mph 20.7 mph N/A Rain Light Rain
8:15 AM 55.4 °F - 53.6 °F 94% 30.10 in 7.0 mi SSW 13.8 mph 20.7 mph N/A Rain Rain
8:35 AM 55.4 °F - 53.6 °F 94% 30.11 in 7.0 mi SSW 12.7 mph 18.4 mph N/A Rain Rain
8:55 AM 55.4 °F - 53.6 °F 94% 30.11 in 5.0 mi SSW 15.0 mph 21.9 mph N/A Rain Light Rain
9:15 AM 55.4 °F - 55.4 °F 100% 30.11 in 4.0 mi SSW 13.8 mph 19.6 mph N/A Rain Rain
9:35 AM 57.2 °F - 55.4 °F 94% 30.11 in 7.0 mi SSW 10.4 mph 18.4 mph N/A Rain Light Rain
9:55 AM 57.2 °F - 55.4 °F 94% 30.12 in 5.0 mi SW 9.2 mph 16.1 mph N/A Rain Light Rain
10:15 AM 57.2 °F - 55.4 °F 94% 30.12 in 4.0 mi SW 12.7 mph - N/A Rain Rain
10:35 AM 53.6 °F - 50.0 °F 88% 30.14 in 2.5 mi NW 12.7 mph 27.6 mph N/A Rain Heavy Rain
10:55 AM 51.8 °F - 50.0 °F 94% 30.15 in 5.0 mi NW 8.1 mph 20.7 mph N/A Rain Light Rain
11:15 AM 50.0 °F - 48.2 °F 94% 30.15 in 4.0 mi WNW 20.7 mph 27.6 mph N/A Rain Rain
11:35 AM 50.0 °F - 48.2 °F 94% 30.16 in 5.0 mi NW 15.0 mph 24.2 mph N/A Rain Rain
11:55 AM 50.0 °F - 46.4 °F 87% 30.16 in 7.0 mi WNW 12.7 mph 21.9 mph N/A Rain Light Rain
12:15 PM 50.0 °F - 46.4 °F 87% 30.16 in 7.0 mi WNW 10.4 mph - N/A Rain Light Rain
12:35 PM 50.0 °F - 46.4 °F 87% 30.16 in 10.0 mi WNW 13.8 mph 17.3 mph N/A Rain Light Rain
12:55 PM 46.4 °F 39.8 °F 44.6 °F 93% 30.18 in 5.0 mi NW 16.1 mph 19.6 mph N/A Rain Rain
1:15 PM 42.8 °F 37.0 °F 42.8 °F 100% 30.20 in 5.0 mi NW 10.4 mph 18.4 mph N/A Rain Light Rain
1:35 PM 42.8 °F 37.5 °F 41.0 °F 93% 30.22 in 7.0 mi NW 9.2 mph - N/A Rain Light Rain
1:55 PM 42.8 °F 36.6 °F 41.0 °F 93% 30.21 in 10.0 mi NNW 11.5 mph - N/A Rain Rain
2:15 PM 42.8 °F 37.5 °F 41.0 °F 93% 30.23 in 7.0 mi NW 9.2 mph 13.8 mph N/A Rain Light Rain
2:35 PM 42.8 °F 38.0 °F 41.0 °F 93% 30.25 in 7.0 mi WNW 8.1 mph - N/A Rain Light Rain
2:55 PM 41.0 °F 34.3 °F 41.0 °F 100% 30.26 in 10.0 mi WNW 11.5 mph - N/A Rain Rain
3:15 PM 41.0 °F 33.1 °F 39.2 °F 93% 30.26 in 10.0 mi WNW 15.0 mph 18.4 mph N/A Rain Light Rain
3:35 PM 41.0 °F 33.9 °F 35.6 °F 81% 30.28 in 10.0 mi WNW 12.7 mph 17.3 mph N/A   Overcast
3:55 PM 39.2 °F 33.0 °F 33.8 °F 81% 30.30 in 10.0 mi WNW 9.2 mph 16.1 mph N/A   Overcast
4:15 PM 37.4 °F 29.8 °F 32.0 °F 81% 30.31 in 10.0 mi WNW 11.5 mph 17.3 mph N/A   Overcast
4:35 PM 37.4 °F 32.1 °F 33.8 °F 87% 30.32 in 10.0 mi WNW 6.9 mph - N/A   Overcast
4:55 PM 37.4 °F 33.8 °F 33.8 °F 87% 30.33 in 10.0 mi WNW 4.6 mph - N/A   Overcast
5:15 PM 37.4 °F 33.8 °F 33.8 °F 87% 30.34 in 10.0 mi WNW 4.6 mph - N/A   Mostly Cloudy
5:35 PM 37.4 °F - 33.8 °F 87% 30.34 in 10.0 mi Calm Calm - N/A   Mostly Cloudy
5:55 PM 35.6 °F - 33.8 °F 93% 30.34 in 10.0 mi Calm Calm - N/A   Mostly Cloudy
6:15 PM 35.6 °F - 33.8 °F 93% 30.34 in 10.0 mi Calm Calm - N/A   Scattered Clouds
6:35 PM 33.8 °F - 32.0 °F 93% 30.35 in 10.0 mi Calm Calm - N/A   Clear
6:55 PM 33.8 °F - 32.0 °F 93% 30.35 in 10.0 mi Calm Calm - N/A   Clear
7:15 PM 33.8 °F 30.8 °F 32.0 °F 93% 30.36 in 10.0 mi WSW 3.5 mph - N/A   Clear
7:35 PM 32.0 °F - 32.0 °F 100% 30.37 in 10.0 mi Calm Calm - N/A   Clear
7:55 PM 32.0 °F 28.7 °F 32.0 °F 100% 30.37 in 7.0 mi West 3.5 mph - N/A   Clear
8:15 PM 32.0 °F 28.7 °F 32.0 °F 100% 30.39 in 10.0 mi West 3.5 mph - N/A   Clear
8:35 PM 32.0 °F 28.7 °F 32.0 °F 100% 30.39 in 10.0 mi WSW 3.5 mph - N/A   Clear
8:55 PM 32.0 °F - 32.0 °F 100% 30.40 in 10.0 mi Calm Calm - N/A   Clear
9:15 PM 32.0 °F 28.7 °F 32.0 °F 100% 30.41 in 10.0 mi WSW 3.5 mph - N/A   Clear
9:35 PM 32.0 °F 28.7 °F 32.0 °F 100% 30.41 in 10.0 mi West 3.5 mph - N/A   Clear
9:55 PM 32.0 °F - 32.0 °F 100% 30.42 in 10.0 mi Calm Calm - N/A   Clear
10:15 PM 32.0 °F 24.2 °F 28.4 °F 87% 30.42 in 10.0 mi WNW 9.2 mph - N/A   Clear
10:35 PM 33.8 °F 27.7 °F 26.6 °F 75% 30.43 in 10.0 mi WNW 6.9 mph - N/A   Clear
10:55 PM 33.8 °F 28.6 °F 26.6 °F 75% 30.43 in 10.0 mi NW 5.8 mph - N/A   Clear
11:15 PM 33.8 °F 28.6 °F 24.8 °F 70% 30.44 in 10.0 mi WNW 5.8 mph - N/A   Clear
11:35 PM 32.0 °F - 26.6 °F 80% 30.45 in 10.0 mi Calm Calm - N/A   Clear
11:55 PM 32.0 °F - 28.4 °F 87% 30.45 in 10.0 mi Calm Calm - N/A   Clear